EDT,Max TemperatureF,Mean TemperatureF,Min TemperatureF,Max Dew PointF,MeanDew PointF,Min DewpointF,Max Humidity, Mean Humidity, Min Humidity, Max Sea Level PressureIn, Mean Sea Level PressureIn, Min Sea Level PressureIn, Max VisibilityMiles, Mean VisibilityMiles, Min VisibilityMiles, Max Wind SpeedMPH, Mean Wind SpeedMPH, Max Gust SpeedMPH,PrecipitationIn, CloudCover, Events, WindDirDegrees
2012-10-1,66,60,55,63,58,54,100,93,78,29.92,29.81,29.73,10,8,2,13,3,16,0.27,5,Rain,65
2012-10-2,78,70,62,68,64,61,100,87,61,30.00,29.83,29.75,10,9,2,14,4,17,0.41,5,Rain,18
2012-10-3,73,68,60,63,59,55,100,81,53,30.24,30.13,30.01,10,10,10,7,1,,0.00,4,,221
2012-10-4,75,64,53,61,55,50,100,82,41,30.34,30.28,30.24,10,8,0,9,1,,0.00,3,Fog,252
2012-10-5,75,62,48,61,53,48,100,84,44,30.29,30.18,30.06,10,7,0,9,1,,0.00,2,Fog,246
2012-10-6,59,54,50,57,49,41,100,83,62,30.13,30.07,30.01,10,9,3,9,2,,0.01,7,Rain,319
2012-10-7,55,47,39,48,43,36,100,85,51,30.20,30.13,30.04,10,10,5,7,1,,0.04,5,Rain,273
2012-10-8,48,44,39,46,43,39,100,95,87,30.25,30.19,30.16,10,8,2,6,1,,0.48,5,Rain,96
2012-10-9,55,48,39,48,45,39,100,88,67,30.21,30.15,30.09,10,9,1,5,0,,0.00,8,,191
2012-10-10,57,48,39,50,45,39,100,91,72,30.25,30.15,30.08,10,8,0,8,1,,0.00,6,Fog,265
2012-10-11,64,48,32,45,37,32,100,79,34,30.34,30.28,30.23,10,8,0,8,1,,0.00,0,Fog,233
2012-10-12,64,52,39,50,43,37,100,81,39,30.36,30.30,30.25,10,10,9,5,1,,0.00,8,,285
2012-10-13,73,55,37,55,46,37,100,75,46,30.39,30.31,30.24,10,10,4,8,1,,0.00,1,,142
2012-10-14,69,56,44,63,53,45,100,80,59,30.24,30.13,29.97,10,9,2,14,2,17,0.17,4,Rain,212
2012-10-15,66,55,42,63,50,39,100,76,40,30.00,29.95,29.91,10,9,2,15,5,21,0.39,2,Rain,264
2012-10-16,66,50,35,46,40,36,100,77,37,30.07,29.99,29.91,10,8,1,6,1,,0.00,0,,233
2012-10-17,71,54,37,46,42,37,100,69,31,30.00,29.91,29.79,10,10,3,10,1,,0.00,0,,157
2012-10-18,64,55,46,57,50,41,100,81,51,29.83,29.79,29.74,10,10,9,18,3,30,0.02,5,Rain,241
2012-10-19,64,50,35,50,37,28,100,64,27,29.82,29.77,29.70,10,7,0,20,4,31,0.00,1,Fog,242
2012-10-20,57,50,41,43,40,37,100,68,51,30.04,29.93,29.82,10,10,10,9,3,,0.00,7,,267
2012-10-21,66,49,32,46,40,32,100,78,43,30.22,30.16,30.05,10,10,8,6,0,,0.00,0,,235
2012-10-22,75,57,39,54,46,39,100,76,38,30.28,30.22,30.17,10,10,9,5,0,,0.00,0,,275
2012-10-23,75,58,42,54,48,41,100,77,38,30.24,30.19,30.14,10,9,5,9,1,,0.00,0,,242
2012-10-24,77,59,41,54,48,41,100,76,36,30.26,30.19,30.13,10,9,1,6,1,,0.00,0,,256
2012-10-25,78,60,41,52,46,39,100,68,29,30.18,30.13,30.07,10,10,5,7,1,,0.00,0,,218
2012-10-26,77,62,46,55,51,46,100,74,39,30.14,30.07,29.99,10,10,10,6,1,,0.00,0,,216
2012-10-27,55,52,48,52,48,45,94,85,76,30.01,29.98,29.94,10,10,5,7,2,,0.01,8,Rain,334
2012-10-28,48,44,41,45,41,37,93,87,76,29.98,29.93,29.90,10,8,2,14,4,21,0.43,7,Rain,340
2012-10-29,41,39,35,37,35,32,93,88,81,29.95,29.88,29.72,10,7,2,10,7,17,0.12,5,Rain,299
2012-10-30,37,36,35,36,34,32,100,91,81,29.76,29.65,29.58,10,6,3,14,8,17,0.19,2,Rain,245
2012-10-31,50,44,37,36,34,30,93,73,50,29.87,29.80,29.75,10,9,5,13,7,20,0.00,7,Rain,260